CZ-6A DEB

Satellite information

Favourite Embed

Satellite Type and Status

DEBRISIN ORBIT

Key statistics

Satellite CZ-6A DEB at a glance.

Uptime

390

Days in orbit

Revolutions

≈ 14.5

Per day

Orbit

LEO

Low Earth Orbit

Inclination

88.9

Latest

Satellite identification and parameters

Extended collection of information and parameters for CZ-6A DEB.

Object identification

Identified? True

Debris? True

Object name: CZ-6A DEB

International designator: 2024-140VX

Object number (NORAD): 61358

Object ID (CCSDS): 61358

Country: PEOPLES REPUBLIC OF CHINA (PRC)

Current information (Y/N): Y

RCS size: SMALL

Orbital parameters

Period: 99.409 minutes

Inclination: 88.9299 deg

SMA: 7108.473 km

Apoapsis: 792.67 km

Periapsis: 668.006 km

RAAN: 301.9165 deg

Eccentricy: 0.00876869

Argument of periapsis: 178.1221 deg

Mean anomaly: 182.0332 deg

Mean motion: 14.4856595 rev/day

Mean motion (dot): 0.00001118 rev/day2

B* drag term: 0.00027917839 1/REarth

Two-line elements (TLE)

Creation date: Aug. 31, 2025, 2:26 a.m.

Reference frame: TEME

Reference center: EARTH

Epoch: Aug. 30, 2025, 9:08 p.m. UTC

TLE line 0: 0 CZ-6A DEB

TLE line 1: 1 61358U 24140VX 25242.88071463 .00001118 00000-0 27918-3 0 9997

TLE line 2: 2 61358 88.9299 301.9165 0087687 178.1221 182.0332 14.48565950 52297

Live tracking on map

Real-time ground track for satellite CZ-6A DEB.

In-orbit conjunctions

A list of the most updated potential collisions computed for object CZ-6A DEB.

Target Orbit TCA Probability of collision Miss distance Type
NOAA 10 SSO 2025-05-03 05:49:11 0.0006303404 135.0 (m) PAYLOAD
FENGYUN 1C DEB SSO 2025-03-04 06:46:12 0.000126677 561.0 (m) DEBRIS
FENGYUN 1C DEB SSO 2025-02-19 20:53:33 0.0003662614 728.0 (m) DEBRIS
FENGYUN 1C DEB SSO 2024-10-23 18:52:49 0.0001066322 533.0 (m) DEBRIS

Associated space launch

18 Low Earth Orbit communication satellites with Ku, Q and V band payloads for the G60 constellation operated by Shanghai Spacecom Satellite Technology (SSST) with funding backed by the Shanghai local government. Initial constellation will consist of 1296 satellites by 2027 with long term plans to expand it to 12000 satellites.

CZ-6A DEB was lifted into orbit during the mission ‘Long March 6A | G60 Polar Group 01’, on board a Long March 6A space rocket.

The launch took place on Aug. 6, 2024, 6:42 a.m. from Launch Complex 9A.

For more information about the launch, click the button.

Launch to space Long March 6A | G60 Polar Group 01
Long March 6A | G60 Polar Group 01

Agency: N/A

Status: Launch Successful

Launch date: Aug. 6, 2024, 6:42 a.m. UTC

Rocket: Long March 6A

Launch pad: Launch Complex 9A

Location: Taiyuan Satellite Launch Center, People's Republic of China

...

Latest news about this satellite

News about space launch
Brightness of first Chinese broadband constellation satellites alarms astronomers

The first satellites of a Chinese broadband constellation are significantly brighter than those of Western systems, posing a new challenge for astronomers.

News about space launch
Chinese rocket stage breaks up into cloud of more than 700 pieces of space debris

HELSINKI — A Chinese Long March 6A rocket’s upper stage has fragmented into a cloud of over 700 pieces of space debris, adding to concerns about long-term orbital safety. China […]

News about space launch
China's Thousand Sails Megaconstellation Kicks Off with Dangerous Debris Field

China's Thousand Sails Megaconstellation Kicks Off with Dangerous Debris Field


Newsletter sign-up

Weekly statistics, charts and insights to help you stay on top of the space industry.